Tracking 27419 objects as of 10-Jun-2023
HD Live streaming from Space Station
objects crossing your sky now

STARLINK-3861

Track STARLINK-3861 now!
10-day predictions
STARLINK-3861 is classified as:


NORAD ID: 52503
Int'l Code: 2022-049BE
Perigee: 546.5 km
Apogee: 547.2 km
Inclination: 53.2 °
Period: 95.4 minutes
Semi major axis: 6917 km
RCS: Unknown
Launch date: May 6, 2022
Source: United States (US)
Launch site: AIR FORCE EASTERN TEST RANGE (AFETR)
Your satellite tracking list
Your tracking list is empty




NASA's NSSDC Master Catalog

Two Line Element Set (TLE):
1 52503U 22049BE  23160.45728257 -.00000394  00000-0 -66919-5 0  9998
2 52503  53.2149 227.3410 0000462  63.2968 296.8071 15.08849597 60922
Source of the keplerian elements: AFSPC